Time,TemperatureF,DewpointF,PressureIn,WindDirection,WindDirectionDegrees,WindSpeedMPH,WindSpeedGustMPH,Humidity,HourlyPrecipIn,Conditions,Clouds,dailyrainin,SoftwareType,DateUTC
2013-11-29 00:02:00,-2.0,-7.0,-100.00,West,275,3.0,6.0,79,0.00,,,0.00,,2013-11-29 09:02:00,
2013-11-29 00:11:00,-2.0,-7.0,-100.00,West,275,3.0,6.0,79,0.00,,,0.00,,2013-11-29 09:11:00,
2013-11-29 00:21:00,-1.0,-6.0,-100.00,West,275,7.0,9.0,79,0.00,,,0.00,,2013-11-29 09:21:00,
2013-11-29 00:33:00,-1.0,-6.0,-100.00,West,275,7.0,9.0,79,0.00,,,0.00,,2013-11-29 09:33:00,
2013-11-29 00:43:00,-1.0,-6.0,-100.00,West,275,7.0,9.0,79,0.00,,,0.00,,2013-11-29 09:43:00,
2013-11-29 00:52:00,-1.0,-6.0,-100.00,West,270,6.0,8.0,79,0.00,,,0.00,,2013-11-29 09:52:00,
2013-11-29 01:03:00,-1.0,-6.0,-100.00,West,270,6.0,8.0,79,0.00,,,0.00,,2013-11-29 10:03:00,
2013-11-29 01:13:00,-1.0,-6.0,-100.00,West,270,6.0,8.0,79,0.00,,,0.00,,2013-11-29 10:13:00,
2013-11-29 01:23:00,-2.0,-7.0,-100.00,WNW,285,6.0,9.0,79,0.00,,,0.00,,2013-11-29 10:23:00,
2013-11-29 01:33:00,-2.0,-7.0,-100.00,WNW,285,6.0,9.0,79,0.00,,,0.00,,2013-11-29 10:33:00,
2013-11-29 01:42:00,-2.0,-7.0,-100.00,WNW,285,6.0,9.0,79,0.00,,,0.00,,2013-11-29 10:42:00,
2013-11-29 01:52:00,-2.0,-7.0,-100.00,WNW,300,5.0,9.0,79,0.00,,,0.00,,2013-11-29 10:52:00,
2013-11-29 02:02:00,-2.0,-7.0,-100.00,WNW,300,5.0,9.0,79,0.00,,,0.00,,2013-11-29 11:02:00,
2013-11-29 02:12:00,-2.0,-7.0,-100.00,WNW,300,5.0,9.0,79,0.00,,,0.00,,2013-11-29 11:12:00,
2013-11-29 02:21:00,-2.0,-7.0,-100.00,West,280,5.0,7.0,79,0.00,,,0.00,,2013-11-29 11:21:00,
2013-11-29 02:32:00,-2.0,-7.0,-100.00,West,280,5.0,7.0,79,0.00,,,0.00,,2013-11-29 11:32:00,
2013-11-29 02:42:00,-2.0,-7.0,-100.00,West,280,5.0,7.0,79,0.00,,,0.00,,2013-11-29 11:42:00,
2013-11-29 02:52:00,-1.0,-6.0,-100.00,West,280,6.0,10.0,79,0.00,,,0.00,,2013-11-29 11:52:00,
2013-11-29 03:02:00,-1.0,-6.0,-100.00,West,280,6.0,10.0,79,0.00,,,0.00,,2013-11-29 12:02:00,
2013-11-29 03:11:00,-1.0,-6.0,-100.00,West,280,6.0,10.0,79,0.00,,,0.00,,2013-11-29 12:11:00,
2013-11-29 03:21:00,-1.0,-6.0,-100.00,West,275,4.0,9.0,79,0.00,,,0.00,,2013-11-29 12:21:00,
2013-11-29 03:32:00,-1.0,-6.0,-100.00,West,275,4.0,9.0,79,0.00,,,0.00,,2013-11-29 12:32:00,
2013-11-29 03:42:00,-1.0,-6.0,-100.00,West,275,4.0,9.0,79,0.00,,,0.00,,2013-11-29 12:42:00,
2013-11-29 03:52:00,-1.0,-6.0,-100.00,West,280,4.0,7.0,79,0.00,,,0.00,,2013-11-29 12:52:00,
2013-11-29 04:01:00,-1.0,-6.0,-100.00,West,280,4.0,7.0,79,0.00,,,0.00,,2013-11-29 13:01:00,
2013-11-29 04:11:00,-1.0,-6.0,-100.00,West,280,4.0,7.0,79,0.00,,,0.00,,2013-11-29 13:11:00,
2013-11-29 04:22:00,-1.0,-6.0,-100.00,WNW,300,3.0,6.0,79,0.00,,,0.00,,2013-11-29 13:22:00,
2013-11-29 04:32:00,-1.0,-6.0,-100.00,WNW,300,3.0,6.0,79,0.00,,,0.00,,2013-11-29 13:32:00,
2013-11-29 04:42:00,-1.0,-6.0,-100.00,WNW,300,3.0,6.0,79,0.00,,,0.00,,2013-11-29 13:42:00,
2013-11-29 04:52:00,-1.0,-6.0,-100.00,West,275,6.0,9.0,79,0.00,,,0.00,,2013-11-29 13:52:00,
2013-11-29 05:02:00,-1.0,-6.0,-100.00,West,275,6.0,9.0,79,0.00,,,0.00,,2013-11-29 14:02:00,
2013-11-29 05:11:00,-1.0,-6.0,-100.00,West,275,6.0,9.0,79,0.00,,,0.00,,2013-11-29 14:11:00,
2013-11-29 05:22:00,-2.0,-7.0,-100.00,NW,315,3.0,6.0,79,0.00,,,0.00,,2013-11-29 14:22:00,
2013-11-29 05:32:00,-2.0,-7.0,-100.00,NW,315,3.0,6.0,79,0.00,,,0.00,,2013-11-29 14:32:00,
2013-11-29 05:42:00,-2.0,-7.0,-100.00,NW,315,3.0,6.0,79,0.00,,,0.00,,2013-11-29 14:42:00,
2013-11-29 05:52:00,-2.0,-7.0,-100.00,WNW,290,4.0,7.0,79,0.00,,,0.00,,2013-11-29 14:52:00,
2013-11-29 06:02:00,-2.0,-7.0,-100.00,WNW,290,4.0,7.0,79,0.00,,,0.00,,2013-11-29 15:02:00,
2013-11-29 06:11:00,-2.0,-7.0,-100.00,WNW,290,4.0,7.0,79,0.00,,,0.00,,2013-11-29 15:11:00,
2013-11-29 06:21:00,-2.0,-7.0,-100.00,West,275,4.0,9.0,79,0.00,,,0.00,,2013-11-29 15:21:00,
2013-11-29 06:33:00,-2.0,-7.0,-100.00,West,275,4.0,9.0,79,0.00,,,0.00,,2013-11-29 15:33:00,
2013-11-29 06:43:00,-2.0,-7.0,-100.00,West,275,4.0,9.0,79,0.00,,,0.00,,2013-11-29 15:43:00,
2013-11-29 06:53:00,-1.0,-6.0,-100.00,WNW,285,5.0,9.0,79,0.00,,,0.00,,2013-11-29 15:53:00,
2013-11-29 07:03:00,-1.0,-6.0,-100.00,WNW,285,5.0,9.0,79,0.00,,,0.00,,2013-11-29 16:03:00,
2013-11-29 07:13:00,-1.0,-6.0,-100.00,WNW,285,5.0,9.0,79,0.00,,,0.00,,2013-11-29 16:13:00,
2013-11-29 07:23:00,-1.0,-6.0,-100.00,West,275,5.0,7.0,79,0.00,,,0.00,,2013-11-29 16:23:00,
2013-11-29 07:34:00,-1.0,-6.0,-100.00,West,275,5.0,7.0,79,0.00,,,0.00,,2013-11-29 16:34:00,
2013-11-29 07:42:00,-1.0,-6.0,-100.00,West,275,5.0,7.0,79,0.00,,,0.00,,2013-11-29 16:42:00,
2013-11-29 07:52:00,-1.0,-6.0,-100.00,WNW,285,4.0,9.0,79,0.00,,,0.00,,2013-11-29 16:52:00,
2013-11-29 08:02:00,-1.0,-6.0,-100.00,WNW,285,4.0,9.0,79,0.00,,,0.00,,2013-11-29 17:02:00,
2013-11-29 08:12:00,-1.0,-6.0,-100.00,WNW,285,4.0,9.0,79,0.00,,,0.00,,2013-11-29 17:12:00,
2013-11-29 08:22:00,-2.0,-7.0,-100.00,West,265,2.0,5.0,79,0.00,,,0.00,,2013-11-29 17:22:00,
2013-11-29 08:33:00,-2.0,-7.0,-100.00,West,265,2.0,5.0,79,0.00,,,0.00,,2013-11-29 17:33:00,
2013-11-29 08:43:00,-2.0,-7.0,-100.00,West,265,2.0,5.0,79,0.00,,,0.00,,2013-11-29 17:43:00,
2013-11-29 08:52:00,-2.0,-7.0,-100.00,West,275,4.0,6.0,79,0.00,,,0.00,,2013-11-29 17:52:00,
2013-11-29 09:02:00,-2.0,-7.0,-100.00,West,275,4.0,6.0,79,0.00,,,0.00,,2013-11-29 18:02:00,
2013-11-29 09:11:00,-2.0,-7.0,-100.00,West,275,4.0,6.0,79,0.00,,,0.00,,2013-11-29 18:11:00,
2013-11-29 09:21:00,-1.0,-6.0,-100.00,West,280,4.0,7.0,79,0.00,,,0.00,,2013-11-29 18:21:00,
2013-11-29 09:33:00,-1.0,-6.0,-100.00,West,280,4.0,7.0,79,0.00,,,0.00,,2013-11-29 18:33:00,
2013-11-29 09:42:00,-1.0,-6.0,-100.00,West,280,4.0,7.0,79,0.00,,,0.00,,2013-11-29 18:42:00,
2013-11-29 09:52:00,-1.0,-6.0,-100.00,WNW,295,4.0,7.0,79,0.00,,,0.00,,2013-11-29 18:52:00,
2013-11-29 10:01:00,-1.0,-6.0,-100.00,WNW,295,4.0,7.0,79,0.00,,,0.00,,2013-11-29 19:01:00,
2013-11-29 10:11:00,-1.0,-6.0,-100.00,WNW,295,4.0,7.0,79,0.00,,,0.00,,2013-11-29 19:11:00,
2013-11-29 10:21:00,-4.0,-9.0,-100.00,SW,215,2.0,3.0,79,0.00,,,0.00,,2013-11-29 19:21:00,
2013-11-29 10:32:00,-4.0,-9.0,-100.00,SW,215,2.0,3.0,79,0.00,,,0.00,,2013-11-29 19:32:00,
2013-11-29 10:42:00,-4.0,-9.0,-100.00,SW,215,2.0,3.0,79,0.00,,,0.00,,2013-11-29 19:42:00,
2013-11-29 10:52:00,-3.0,-8.0,-100.00,West,265,5.0,8.0,79,0.00,,,0.00,,2013-11-29 19:52:00,
2013-11-29 11:02:00,-3.0,-8.0,-100.00,West,265,5.0,8.0,79,0.00,,,0.00,,2013-11-29 20:02:00,
2013-11-29 11:11:00,-3.0,-8.0,-100.00,West,265,5.0,8.0,79,0.00,,,0.00,,2013-11-29 20:11:00,
2013-11-29 11:22:00,-3.0,-8.0,-100.00,SW,225,1.0,7.0,79,0.00,,,0.00,,2013-11-29 20:22:00,
2013-11-29 11:32:00,-3.0,-8.0,-100.00,SW,225,1.0,7.0,79,0.00,,,0.00,,2013-11-29 20:32:00,
2013-11-29 11:42:00,-3.0,-8.0,-100.00,SW,225,1.0,7.0,79,0.00,,,0.00,,2013-11-29 20:42:00,
2013-11-29 11:52:00,-3.0,-8.0,-100.00,West,275,2.0,4.0,79,0.00,,,0.00,,2013-11-29 20:52:00,
2013-11-29 12:02:00,-3.0,-8.0,-100.00,West,275,2.0,4.0,79,0.00,,,0.00,,2013-11-29 21:02:00,
2013-11-29 12:12:00,-3.0,-8.0,-100.00,West,275,2.0,4.0,79,0.00,,,0.00,,2013-11-29 21:12:00,
2013-11-29 12:21:00,-2.0,-7.0,-100.00,West,270,4.0,6.0,79,0.00,,,0.00,,2013-11-29 21:21:00,
2013-11-29 12:33:00,-2.0,-7.0,-100.00,West,270,4.0,6.0,79,0.00,,,0.00,,2013-11-29 21:33:00,
2013-11-29 12:43:00,-2.0,-7.0,-100.00,West,270,4.0,6.0,79,0.00,,,0.00,,2013-11-29 21:43:00,
2013-11-29 12:53:00,-2.0,-7.0,-100.00,West,275,2.0,6.0,79,0.00,,,0.00,,2013-11-29 21:53:00,
2013-11-29 13:03:00,-2.0,-7.0,-100.00,West,275,2.0,6.0,79,0.00,,,0.00,,2013-11-29 22:03:00,
2013-11-29 13:12:00,-2.0,-7.0,-100.00,West,275,2.0,6.0,79,0.00,,,0.00,,2013-11-29 22:12:00,
2013-11-29 13:23:00,-3.0,-8.0,-100.00,SSW,205,1.0,3.0,79,0.00,,,0.00,,2013-11-29 22:23:00,
2013-11-29 13:33:00,-3.0,-8.0,-100.00,SSW,205,1.0,3.0,79,0.00,,,0.00,,2013-11-29 22:33:00,
2013-11-29 13:42:00,-3.0,-8.0,-100.00,SSW,205,1.0,3.0,79,0.00,,,0.00,,2013-11-29 22:42:00,
2013-11-29 13:52:00,-5.0,-10.0,-100.00,WSW,245,0.0,2.0,78,0.00,,,0.00,,2013-11-29 22:52:00,
2013-11-29 14:02:00,-5.0,-10.0,-100.00,WSW,245,0.0,2.0,78,0.00,,,0.00,,2013-11-29 23:02:00,
2013-11-29 14:12:00,-5.0,-10.0,-100.00,WSW,245,0.0,2.0,78,0.00,,,0.00,,2013-11-29 23:12:00,
2013-11-29 14:22:00,-3.0,-8.0,-100.00,West,275,2.0,4.0,78,0.00,,,0.00,,2013-11-29 23:22:00,
2013-11-29 14:33:00,-3.0,-8.0,-100.00,West,275,2.0,4.0,78,0.00,,,0.00,,2013-11-29 23:33:00,
2013-11-29 14:42:00,-3.0,-8.0,-100.00,West,275,2.0,4.0,78,0.00,,,0.00,,2013-11-29 23:42:00,
2013-11-29 14:52:00,-3.0,-8.0,-100.00,West,270,2.0,3.0,78,0.00,,,0.00,,2013-11-29 23:52:00,
2013-11-29 15:02:00,-3.0,-8.0,-100.00,West,270,2.0,3.0,78,0.00,,,0.00,,2013-11-30 00:02:00,
2013-11-29 15:11:00,-3.0,-8.0,-100.00,West,270,2.0,3.0,78,0.00,,,0.00,,2013-11-30 00:11:00,
2013-11-29 15:21:00,-5.0,-10.0,-100.00,SSE,160,1.0,1.0,78,0.00,,,0.00,,2013-11-30 00:21:00,
2013-11-29 15:32:00,-5.0,-10.0,-100.00,SSE,160,1.0,1.0,78,0.00,,,0.00,,2013-11-30 00:32:00,
2013-11-29 15:42:00,-5.0,-10.0,-100.00,SSE,160,1.0,1.0,78,0.00,,,0.00,,2013-11-30 00:42:00,
2013-11-29 15:52:00,-5.0,-10.0,-100.00,SW,215,0.0,2.0,78,0.00,,,0.00,,2013-11-30 00:52:00,
2013-11-29 16:01:00,-5.0,-10.0,-100.00,SW,215,0.0,2.0,78,0.00,,,0.00,,2013-11-30 01:01:00,
2013-11-29 16:11:00,-5.0,-10.0,-100.00,SW,215,0.0,2.0,78,0.00,,,0.00,,2013-11-30 01:11:00,
2013-11-29 16:21:00,-3.0,-9.0,-100.00,WNW,285,2.0,4.0,78,0.00,,,0.00,,2013-11-30 01:21:00,
2013-11-29 16:32:00,-3.0,-9.0,-100.00,WNW,285,2.0,4.0,78,0.00,,,0.00,,2013-11-30 01:32:00,
2013-11-29 16:42:00,-3.0,-9.0,-100.00,WNW,285,2.0,4.0,78,0.00,,,0.00,,2013-11-30 01:42:00,
2013-11-29 16:52:00,-5.0,-9.0,-100.00,South,175,0.0,1.0,78,0.00,,,0.00,,2013-11-30 01:52:00,
2013-11-29 17:01:00,-5.0,-9.0,-100.00,South,175,0.0,1.0,78,0.00,,,0.00,,2013-11-30 02:01:00,
2013-11-29 17:11:00,-5.0,-9.0,-100.00,South,175,0.0,1.0,78,0.00,,,0.00,,2013-11-30 02:11:00,
2013-11-29 17:21:00,-5.0,-10.0,-100.00,SW,225,1.0,2.0,78,0.00,,,0.00,,2013-11-30 02:21:00,
2013-11-29 17:32:00,-5.0,-10.0,-100.00,SW,225,1.0,2.0,78,0.00,,,0.00,,2013-11-30 02:32:00,
2013-11-29 17:42:00,-5.0,-10.0,-100.00,SW,225,1.0,2.0,78,0.00,,,0.00,,2013-11-30 02:42:00,
2013-11-29 17:52:00,-4.0,-9.0,-100.00,SSW,200,1.0,2.0,78,0.00,,,0.00,,2013-11-30 02:52:00,
2013-11-29 18:02:00,-4.0,-9.0,-100.00,SSW,200,1.0,2.0,78,0.00,,,0.00,,2013-11-30 03:02:00,
2013-11-29 18:11:00,-4.0,-9.0,-100.00,SSW,200,1.0,2.0,78,0.00,,,0.00,,2013-11-30 03:11:00,
2013-11-29 18:43:00,-3.0,-8.0,-100.00,SSW,200,1.0,4.0,78,0.00,,,0.00,,2013-11-30 03:43:00,
2013-11-29 20:22:00,-5.0,-10.0,-100.00,SW,230,0.0,1.0,78,0.00,,,0.00,,2013-11-30 05:22:00,
2013-11-29 20:33:00,-5.0,-10.0,-100.00,SW,230,0.0,1.0,78,0.00,,,0.00,,2013-11-30 05:33:00,
2013-11-29 20:42:00,-5.0,-10.0,-100.00,SW,230,0.0,1.0,78,0.00,,,0.00,,2013-11-30 05:42:00,
2013-11-29 20:53:00,-4.0,-9.0,-100.00,South,175,0.0,2.0,78,0.00,,,0.00,,2013-11-30 05:53:00,
2013-11-29 21:02:00,-4.0,-9.0,-100.00,South,175,0.0,2.0,78,0.00,,,0.00,,2013-11-30 06:02:00,
2013-11-29 21:12:00,-4.0,-9.0,-100.00,South,175,0.0,2.0,78,0.00,,,0.00,,2013-11-30 06:12:00,
2013-11-29 21:22:00,-5.0,-10.0,-100.00,WSW,240,1.0,2.0,78,0.00,,,0.00,,2013-11-30 06:22:00,
2013-11-29 21:32:00,-5.0,-10.0,-100.00,WSW,240,1.0,2.0,78,0.00,,,0.00,,2013-11-30 06:32:00,
2013-11-29 21:42:00,-5.0,-10.0,-100.00,WSW,240,1.0,2.0,78,0.00,,,0.00,,2013-11-30 06:42:00,
2013-11-29 21:52:00,-5.0,-10.0,-100.00,WNW,295,1.0,2.0,78,0.00,,,0.00,,2013-11-30 06:52:00,
2013-11-29 22:01:00,-5.0,-10.0,-100.00,WNW,295,1.0,2.0,78,0.00,,,0.00,,2013-11-30 07:01:00,
2013-11-29 22:12:00,-5.0,-10.0,-100.00,WNW,295,1.0,2.0,78,0.00,,,0.00,,2013-11-30 07:12:00,
2013-11-29 22:21:00,-4.0,-9.0,-100.00,West,275,1.0,4.0,78,0.00,,,0.00,,2013-11-30 07:21:00,
2013-11-29 22:31:00,-4.0,-9.0,-100.00,West,275,1.0,4.0,78,0.00,,,0.00,,2013-11-30 07:31:00,
2013-11-29 22:52:00,-8.0,-13.0,-100.00,SE,130,2.0,4.0,78,0.00,,,0.00,,2013-11-30 07:52:00,
2013-11-29 23:01:00,-8.0,-13.0,-100.00,SE,130,2.0,4.0,78,0.00,,,0.00,,2013-11-30 08:01:00,
2013-11-29 23:11:00,-8.0,-13.0,-100.00,SE,130,2.0,4.0,78,0.00,,,0.00,,2013-11-30 08:11:00,
2013-11-29 23:22:00,-8.0,-13.0,-100.00,SE,130,2.0,3.0,77,0.00,,,0.00,,2013-11-30 08:22:00,
2013-11-29 23:32:00,-8.0,-13.0,-100.00,SE,130,2.0,3.0,77,0.00,,,0.00,,2013-11-30 08:32:00,
2013-11-29 23:42:00,-8.0,-13.0,-100.00,SE,130,2.0,3.0,77,0.00,,,0.00,,2013-11-30 08:42:00,
2013-11-29 23:52:00,-7.0,-12.0,-100.00,SE,130,1.0,2.0,77,0.00,,,0.00,,2013-11-30 08:52:00,